Starlink 32657

operational
NORAD ID: 62475 Int'l Des: 2024-254 Owner: SPXS Country: US Constellation: starlink
LEOCIRCULAR

关于 Starlink 32657

正在加载描述...

实时位置

正在加载3D地球...

即将过境

高度历史

Altitude vs Time

uPlot chart will show altitude changes over time

两行轨道根数

1 62475U 24254P 25345.86746407 .00033412 00000-0 12175-2 0 9993
2 62475 43.0034 155.6475 0001646 271.8808 88.1855 15.27599912 54031
Epoch: Dec 11, 2025 • Age: 29 hours

当前状态

高度 486.2 km
速度 7.63 km/s
星下点 40.21°N, 110.7°E
发射日期 Dec 31, 2024
运行时间 0.9 years
类型 internet

技术详情

分类 Payload
质量 730.00 kg
干质量 700.00 kg
总质量 730.00 kg
长度 0.30 m
直径 4.10 m
跨度 29.00 m
形状 Box + pan
制造商 SPXS
平台类型 Starlink V2M
阶段状态 In Orbit
所有者/国家 SPXS/US

大型星座

Loading constellations...